Weather History for Elmira, NY

Change the Weather History Date:

Saturday, March 15, 2014

  Actual Average Record
Temperature  
Mean Temperature 36 °F -  
Max Temperature 48 °F 43 °F 82 °F (1990)
Min Temperature 27 °F 22 °F 0 °F (1993)
Degree Days  
Heating Degree Days 28    
Moisture  
Dew Point 26 °F    
Average Humidity 59    
Maximum Humidity 79    
Minimum Humidity 42    
Precipitation  
Precipitation 0.03 in - - ()
Sea Level Pressure  
Sea Level Pressure 29.83 in    
Wind  
Wind Speed 12 mph (West)    
Max Wind Speed 22 mph    
Max Gust Speed 37 mph    
Visibility 10 miles    
Events Rain    
Averages and records for this station are not official NWS values.
T = Trace of Precipitation, MM = Missing Value Source: NWS Daily Summary

Daily Weather History Graph

Daily Weather History Graph

Search for Another Location

Airport:

Trip Planner

Search our weather history database for the weather conditions in past years. The results will help you decide how hot, cold, wet, or windy it might be!

Date:

Astronomy

Mar. 15, 2014 Rise Set
Actual Time 7:19 AM EDT 7:14 PM EDT
Civil Twilight 6:51 AM EDT 7:41 PM EDT
Nautical Twilight 6:19 AM EDT 8:14 PM EDT
Astronomical Twilight 5:46 AM EDT 8:47 PM EDT
Moon 6:31 PM EDT (3/15) 6:30 AM EDT (3/15)
Length of Visible Light 12h 50m
Length of Day
11h 54m
Waxing Gibbous, 99% of the Moon is Illuminated
Mar 15
Waxing Gibbous
Mar 16
Full
Mar 23
Last Quarter
Mar 30
New
Apr 7
First Quarter

Hourly Weather History & Observations

Time (EDT) Temp. Windchill Dew Point Humidity Pressure Visibility Wind Dir Wind Speed Gust Speed Precip Events Conditions
12:53 AM 45.0 °F 43.5 °F 23.0 °F 42% 29.64 in 10.0 mi West 3.5 mph - N/A   Partly Cloudy
1:53 AM 44.1 °F 40.1 °F 25.0 °F 47% 29.64 in 10.0 mi WSW 6.9 mph - N/A   Overcast
2:53 AM 44.1 °F 35.9 °F 36.0 °F 73% 29.68 in 4.0 mi West 19.6 mph 34.5 mph 0.02 in Rain Heavy Rain
3:53 AM 42.1 °F 37.7 °F 36.0 °F 79% 29.65 in 10.0 mi WSW 6.9 mph - 0.01 in   Overcast
4:53 AM 41.0 °F 35.2 °F 35.1 °F 79% 29.65 in 10.0 mi West 9.2 mph - N/A   Scattered Clouds
5:53 AM 41.0 °F 35.8 °F 34.0 °F 76% 29.66 in 10.0 mi WSW 8.1 mph - 0.00 in   Mostly Cloudy
6:53 AM 41.0 °F 34.7 °F 34.0 °F 76% 29.67 in 10.0 mi WSW 10.4 mph - N/A   Mostly Cloudy
7:53 AM 42.1 °F 33.9 °F 30.9 °F 65% 29.70 in 10.0 mi West 17.3 mph 25.3 mph N/A   Overcast
8:53 AM 43.0 °F 36.4 °F 28.0 °F 56% 29.73 in 10.0 mi WSW 12.7 mph 24.2 mph N/A   Partly Cloudy
9:53 AM 43.0 °F 34.8 °F 28.0 °F 56% 29.75 in 10.0 mi WSW 18.4 mph 26.5 mph N/A   Mostly Cloudy
10:53 AM 44.1 °F 36.2 °F 28.9 °F 55% 29.76 in 10.0 mi West 18.4 mph 29.9 mph N/A   Mostly Cloudy
11:53 AM 46.0 °F 38.0 °F 30.9 °F 56% 29.78 in 10.0 mi West 21.9 mph 32.2 mph N/A   Scattered Clouds
12:53 PM 45.0 °F 37.9 °F 28.9 °F 53% 29.81 in 10.0 mi West 16.1 mph 27.6 mph N/A   Mostly Cloudy
1:53 PM 46.0 °F 38.3 °F 28.0 °F 50% 29.82 in 10.0 mi West 20.7 mph 33.4 mph 0.00 in   Mostly Cloudy
2:53 PM 43.0 °F 34.8 °F 28.0 °F 56% 29.83 in 10.0 mi West 18.4 mph 36.8 mph 0.00 in Rain Light Rain
3:53 PM 42.1 °F 35.2 °F 28.0 °F 58% 29.86 in 10.0 mi WSW 12.7 mph 21.9 mph 0.00 in Rain Light Rain
4:53 PM 42.1 °F 34.2 °F 28.0 °F 58% 29.89 in 10.0 mi West 16.1 mph 25.3 mph 0.00 in   Overcast
5:53 PM 37.9 °F 28.2 °F 26.1 °F 62% 29.95 in 10.0 mi WNW 18.4 mph 25.3 mph 0.00 in   Overcast
6:53 PM 37.0 °F 27.4 °F 21.9 °F 54% 30.00 in 10.0 mi WNW 17.3 mph 28.8 mph 0.00 in   Mostly Cloudy
7:53 PM 33.1 °F 23.9 °F 19.9 °F 59% 30.05 in 10.0 mi NW 12.7 mph 18.4 mph N/A   Partly Cloudy
8:53 PM 30.9 °F 22.2 °F 17.1 °F 57% 30.07 in 10.0 mi WNW 10.4 mph 23.0 mph N/A   Partly Cloudy
9:53 PM 30.0 °F 19.1 °F 12.9 °F 49% 30.12 in 10.0 mi WNW 15.0 mph 26.5 mph N/A   Clear
10:53 PM 27.0 °F 20.5 °F 10.9 °F 51% 30.13 in 10.0 mi West 5.8 mph - N/A   Clear
11:53 PM 27.0 °F 16.7 °F 12.0 °F 53% 30.13 in 10.0 mi NW 11.5 mph 20.7 mph N/A   Mostly Cloudy